Location: Lake Arresoe
(56.0000°N, 12.5000°E)
Time: 21:38:08
(UTC+01:00)

XW-2D - Visible Passes

Search period start: 22 January 2022 00:00
Search period end: 01 February 2022 00:00
Orbit: 502 x 522 km, 97.5° (Epoch: 22 January)

Date Brightness Start Highest point End Pass type
(mag) Time Alt. Az. Time Alt. Az. Time Alt. Az.
22 Jan ? 04:54:09 10° ENE 04:54:41 10° E 04:55:15 10° E visible
22 Jan ? 06:25:39 10° NNE 06:29:22 78° ESE 06:33:04 10° S visible
22 Jan ? 17:12:24 10° S 17:16:08 73° WSW 17:19:54 10° NNW visible
23 Jan ? 06:09:43 10° NNE 06:13:23 53° E 06:17:00 10° S visible
23 Jan ? 18:32:40 10° WSW 18:34:40 14° W 18:36:41 10° NW visible
24 Jan ? 05:53:53 10° NNE 05:57:22 37° E 06:00:48 10° SSE visible
24 Jan ? 07:28:04 10° N 07:31:16 28° WNW 07:34:27 10° WSW visible
24 Jan ? 18:15:48 10° SW 18:18:33 19° W 18:21:17 10° NW visible
25 Jan ? 05:38:06 10° NE 05:41:17 26° E 05:44:28 10° SSE visible
25 Jan ? 07:11:55 10° N 07:15:24 37° WNW 07:18:49 10° SW visible
25 Jan ? 17:59:15 10° SSW 18:02:26 26° W 18:05:39 10° NW visible
26 Jan ? 05:22:27 10° NE 05:25:11 19° E 05:27:53 10° SE visible
26 Jan ? 06:55:51 10° N 06:59:28 53° WNW 07:03:05 10° SSW visible
26 Jan ? 17:42:53 10° SSW 17:46:22 36° W 17:49:51 10° NNW visible
27 Jan ? 05:07:02 10° NE 05:09:02 14° E 05:11:01 10° ESE visible
27 Jan ? 06:39:48 10° NNE 06:43:31 77° WNW 06:47:13 10° SSW visible
27 Jan ? 17:26:40 10° S 17:30:19 52° W 17:33:59 10° NNW visible
28 Jan ? 06:23:49 10° NNE 06:27:32 74° ESE 06:31:14 10° S visible
28 Jan ? 17:10:34 10° S 17:14:18 76° WSW 17:18:02 10° NNW visible
28 Jan ? 18:48:28 10° W 18:48:57 10° W 18:49:27 10° WNW visible
29 Jan ? 06:07:52 10° NNE 06:11:30 51° E 06:15:07 10° S visible
29 Jan ? 18:30:41 10° WSW 18:32:46 14° W 18:34:52 10° NW visible
30 Jan ? 05:51:59 10° NNE 05:55:26 35° E 05:58:52 10° SSE visible
30 Jan ? 07:26:08 10° N 07:29:22 29° WNW 07:32:34 10° WSW visible
30 Jan ? 18:13:49 10° SW 18:16:36 20° W 18:19:23 10° NW visible
31 Jan ? 05:36:11 10° NE 05:39:20 25° E 05:42:27 10° SSE visible
31 Jan ? 07:09:58 10° N 07:13:27 39° WNW 07:16:54 10° SW visible
31 Jan ? 17:57:14 10° SSW 18:00:27 27° W 18:03:41 10° NW visible
